{"data":{"norad_id":62487,"epoch":"2026-09-21T06:41:50.370144Z","epoch_age_seconds":107192,"freshness":"FRESH","line1":"1 62487U 25003A   26264.27905521 -.00005926  00000+0 -20597-3 0  9997","line2":"2 62487  42.9995 264.4585 0001748 276.8296  83.2357 15.27583111 96569","mean_motion":15.27583111,"eccentricity":0.0001748,"inclination_deg":42.9995,"raan_deg":264.4585,"arg_perigee_deg":276.8296,"mean_anomaly_deg":83.2357,"bstar":-0.00020597,"rev_number":9656,"period_min":94.266556734667,"perigee_km":481.84044690104,"apogee_km":484.23911430354,"semimajor_km":6861.1767806023,"source":"CELESTRAK","updated_at":"2026-09-22T09:00:49.616008Z"}}